Starlink 31782

operational
NORAD ID: 59606 Int'l Des: 2024-080 Owner: SPXS Country: US Constellation: starlink
LEOCIRCULAR

About Starlink 31782

Description loading...

Live Position

Loading 3D Globe...

Upcoming Passes

Altitude History

Altitude vs Time

uPlot chart will show altitude changes over time

Two-Line Element Set

1 59606U 24080F 26012.23233329 .00002821 00000-0 11200-3 0 9998
2 59606 43.0013 0.5994 0001378 258.7685 101.3012 15.27584819 95851
Epoch: Jan 12, 2026 • Age: 24 hours

Current Status

Altitude 484.1 km
Velocity 7.63 km/s
Sub-Earth Point 28.46°N, 161.99°W
Launch Date Apr 28, 2024
Age 1.7 years
Type internet

Technical Details

Classification Payload
Mass 730.00 kg
Dry Mass 700.00 kg
Total Mass 730.00 kg
Length 0.30 m
Diameter 4.10 m
Span 29.00 m
Shape Box + pan
Manufacturer SPXS
Bus Type Starlink V2M
Phase Status In Orbit
Owner/State SPXS/US

Large Constellations

Loading constellations...